Melfa, VA

6:28 AM EST on February 20, 2017 (GMT -0500)
Accomack County

Weather History for KMFV - December, 2011

Change the Weather History Date:

Thursday, December 8, 2011

  Actual Average (KWAL) Record (KWAL)
Temperature  
Mean Temperature 38 °F -  
Max Temperature 44 °F 50 °F 69 °F (2004)
Min Temperature 33 °F 34 °F 21 °F (1977)
Degree Days  
Heating Degree Days 26    
Moisture  
Dew Point 32 °F    
Average Humidity 67    
Maximum Humidity 93    
Minimum Humidity 53    
Precipitation  
Precipitation 0.00 in - - ()
Sea Level Pressure  
Sea Level Pressure 30.14 in    
Wind  
Wind Speed 16 mph (NW)    
Max Wind Speed 24 mph    
Max Gust Speed 41 mph    
Visibility 10 miles    
Events Rain    
Averages and records for this station are not official NWS values.
T = Trace of Precipitation, MM = Missing Value Source: NWS Daily Summary

Daily Weather History Graph

Daily Weather History Graph

Search for Another Location

Airport or City:

Trip Planner

Search our weather history database for the weather conditions in past years. The results will help you decide how hot, cold, wet, or windy it might be!

Date:

Astronomy

Dec. 08, 2011 Rise Set
Actual Time 7:05 AM EST 4:44 PM EST
Civil Twilight 6:36 AM EST 5:13 PM EST
Nautical Twilight 6:03 AM EST 5:46 PM EST
Astronomical Twilight 5:31 AM EST 6:17 PM EST
Moon 3:21 PM EST (12/8) 5:15 AM EST (12/8)
Length of Visible Light 10h 37m
Length of Day
9h 38m
Waxing Gibbous, 97% of the Moon is Illuminated
Dec 8
Waxing Gibbous
Dec 10
Full
Dec 17
Last Quarter
Dec 24
New
Jan 1
First Quarter

Hourly Weather History & Observations

Time (EST) Temp. Windchill Dew Point Humidity Pressure Visibility Wind Dir Wind Speed Gust Speed Precip Events Conditions
12:15 AM 44.6 °F 37.2 °F 42.8 °F 93% 29.75 in 7.0 mi NW 17.3 mph 31.1 mph N/A Rain Rain
12:35 AM 44.6 °F 36.1 °F 41.0 °F 87% 29.78 in 10.0 mi NW 21.9 mph 29.9 mph N/A   Overcast
12:55 AM 44.6 °F 36.1 °F 39.2 °F 81% 29.80 in 10.0 mi NW 21.9 mph 38.0 mph N/A   Overcast
1:15 AM 44.6 °F 36.9 °F 39.2 °F 81% 29.83 in 10.0 mi NW 18.4 mph 35.7 mph N/A   Overcast
1:35 AM 44.6 °F 36.6 °F 39.2 °F 81% 29.85 in 10.0 mi NW 19.6 mph 32.2 mph N/A   Overcast
1:55 AM 42.8 °F 34.3 °F 37.4 °F 81% 29.87 in 10.0 mi NW 19.6 mph 32.2 mph N/A   Overcast
2:15 AM 42.8 °F 36.2 °F 37.4 °F 81% 29.89 in 10.0 mi NNW 12.7 mph 32.2 mph N/A   Overcast
2:35 AM 42.8 °F 33.3 °F 35.6 °F 76% 29.91 in 10.0 mi NW 24.2 mph 38.0 mph N/A   Mostly Cloudy
2:55 AM 44.6 °F 36.1 °F 35.6 °F 71% 29.93 in 10.0 mi NW 21.9 mph 35.7 mph N/A   Mostly Cloudy
3:15 AM 44.6 °F 35.7 °F 35.6 °F 71% 29.96 in 10.0 mi WNW 24.2 mph 36.8 mph N/A   Overcast
3:35 AM 44.6 °F 35.7 °F 33.8 °F 66% 29.97 in 10.0 mi WNW 24.2 mph 41.4 mph N/A   Overcast
3:55 AM 42.8 °F 34.8 °F 33.8 °F 70% 29.98 in 10.0 mi NW 17.3 mph 33.4 mph N/A   Mostly Cloudy
4:15 AM 42.8 °F 34.8 °F 33.8 °F 70% 29.98 in 10.0 mi NW 17.3 mph 27.6 mph N/A   Scattered Clouds
4:35 AM 42.8 °F 35.8 °F 33.8 °F 70% 29.99 in 10.0 mi NW 13.8 mph 29.9 mph N/A   Clear
4:55 AM 42.8 °F 34.8 °F 33.8 °F 70% 30.01 in 10.0 mi NW 17.3 mph 25.3 mph N/A   Scattered Clouds
5:15 AM 42.8 °F 34.8 °F 33.8 °F 70% 30.02 in 10.0 mi NW 17.3 mph 26.5 mph N/A   Scattered Clouds
5:35 AM 42.8 °F 36.2 °F 32.0 °F 66% 30.04 in 10.0 mi NW 12.7 mph 25.3 mph N/A   Scattered Clouds
5:55 AM 41.0 °F 33.1 °F 32.0 °F 70% 30.06 in 10.0 mi NW 15.0 mph 23.0 mph N/A   Clear
6:15 AM 41.0 °F 33.5 °F 32.0 °F 70% 30.09 in 10.0 mi NW 13.8 mph 25.3 mph N/A   Clear
6:35 AM 41.0 °F 33.9 °F 32.0 °F 70% 30.11 in 10.0 mi WNW 12.7 mph 23.0 mph N/A   Clear
6:55 AM 41.0 °F 33.5 °F 30.2 °F 65% 30.14 in 10.0 mi WNW 13.8 mph 20.7 mph N/A   Scattered Clouds
7:15 AM 39.2 °F 32.5 °F 30.2 °F 70% 30.16 in 10.0 mi NW 10.4 mph - N/A   Clear
7:35 AM 39.2 °F 31.2 °F 30.2 °F 70% 30.17 in 10.0 mi NW 13.8 mph 21.9 mph N/A   Clear
7:55 AM 39.2 °F 30.2 °F 30.2 °F 70% 30.18 in 10.0 mi NW 17.3 mph 24.2 mph N/A   Clear
8:15 AM 41.0 °F 32.2 °F 28.4 °F 61% 30.18 in 10.0 mi NNW 18.4 mph 24.2 mph N/A   Clear
8:35 AM 41.0 °F 33.1 °F 28.4 °F 61% 30.18 in 10.0 mi NNW 15.0 mph 25.3 mph N/A   Clear
8:55 AM 42.8 °F 35.8 °F 28.4 °F 57% 30.21 in 10.0 mi NW 13.8 mph 26.5 mph N/A   Clear
9:15 AM 42.8 °F 35.8 °F 28.4 °F 57% 30.22 in 10.0 mi NW 13.8 mph 23.0 mph N/A   Clear
9:35 AM 42.8 °F 35.1 °F 30.2 °F 61% 30.22 in 10.0 mi NW 16.1 mph 25.3 mph N/A   Clear
9:55 AM 42.8 °F 35.4 °F 30.2 °F 61% 30.24 in 10.0 mi NNW 15.0 mph 25.3 mph N/A   Clear
10:15 AM 44.6 °F 37.4 °F 28.4 °F 53% 30.24 in 10.0 mi NNW 16.1 mph 25.3 mph N/A   Clear
10:35 AM 44.6 °F 39.2 °F 28.4 °F 53% 30.24 in 10.0 mi NNW 10.4 mph 23.0 mph N/A   Clear
10:55 AM 44.6 °F 37.4 °F 28.4 °F 53% 30.24 in 10.0 mi NW 16.1 mph 28.8 mph N/A   Clear
11:15 AM 44.6 °F 38.8 °F 30.2 °F 57% 30.24 in 10.0 mi NW 11.5 mph 24.2 mph N/A   Clear
11:35 AM 44.6 °F 37.8 °F 30.2 °F 57% 30.24 in 10.0 mi NW 15.0 mph 25.3 mph N/A   Clear
11:55 AM 44.6 °F 39.2 °F 30.2 °F 57% 30.24 in 10.0 mi NNW 10.4 mph 20.7 mph N/A   Clear
12:15 PM 44.6 °F 37.8 °F 30.2 °F 57% 30.24 in 10.0 mi NNW 15.0 mph 21.9 mph N/A   Clear
12:35 PM 44.6 °F 37.2 °F 30.2 °F 57% 30.26 in 10.0 mi WNW 17.3 mph 20.7 mph N/A   Clear
12:55 PM 44.6 °F 37.2 °F 28.4 °F 53% 30.26 in 10.0 mi WNW 17.3 mph 25.3 mph N/A   Clear
1:15 PM 44.6 °F 39.2 °F 30.2 °F 57% 30.25 in 10.0 mi NW 10.4 mph 23.0 mph N/A   Clear
1:35 PM 44.6 °F 37.8 °F 30.2 °F 57% 30.25 in 10.0 mi NW 15.0 mph 21.9 mph N/A   Clear
1:55 PM 44.6 °F 37.2 °F 30.2 °F 57% 30.26 in 10.0 mi NW 17.3 mph - N/A   Clear
2:15 PM 44.6 °F 38.1 °F 30.2 °F 57% 30.27 in 10.0 mi WNW 13.8 mph 18.4 mph N/A   Clear
2:35 PM 44.6 °F 39.7 °F 30.2 °F 57% 30.27 in 10.0 mi WNW 9.2 mph - N/A   Clear
2:55 PM 44.6 °F 38.8 °F 30.2 °F 57% 30.27 in 10.0 mi NW 11.5 mph - N/A   Clear
3:15 PM 44.6 °F 40.2 °F 30.2 °F 57% 30.27 in 10.0 mi NW 8.1 mph - N/A   Clear
3:35 PM 44.6 °F 39.2 °F 30.2 °F 57% 30.27 in 10.0 mi NNW 10.4 mph - N/A   Clear
3:55 PM 44.6 °F 41.4 °F 30.2 °F 57% 30.28 in 10.0 mi NNW 5.8 mph - N/A   Clear
4:15 PM 44.6 °F 41.4 °F 30.2 °F 57% 30.28 in 10.0 mi NNW 5.8 mph - N/A   Clear
4:35 PM 42.8 °F 40.1 °F 30.2 °F 61% 30.29 in 10.0 mi NNW 4.6 mph - N/A   Clear
4:55 PM 41.0 °F - 30.2 °F 65% 30.30 in 10.0 mi Calm Calm - N/A   Clear
5:15 PM 39.2 °F 37.0 °F 30.2 °F 70% 30.31 in 10.0 mi NNW 3.5 mph - N/A   Clear
5:35 PM 37.4 °F 34.9 °F 30.2 °F 75% 30.31 in 10.0 mi North 3.5 mph - N/A   Clear
6:15 PM 35.6 °F - 30.2 °F 81% 30.33 in 10.0 mi Calm Calm - N/A   Clear
6:35 PM 33.8 °F 30.8 °F 30.2 °F 87% 30.33 in 10.0 mi North 3.5 mph - N/A   Clear
6:55 PM 33.8 °F - 28.4 °F 81% 30.33 in 10.0 mi Calm Calm - N/A   Clear
7:15 PM 33.8 °F - 28.4 °F 81% 30.34 in 10.0 mi Calm Calm - N/A   Clear
7:35 PM 33.8 °F - 28.4 °F 81% 30.35 in 10.0 mi Calm Calm - N/A   Clear
7:55 PM 33.8 °F - 28.4 °F 81% 30.35 in 10.0 mi Calm Calm - N/A   Clear
8:15 PM 32.0 °F 27.5 °F 28.4 °F 87% 30.36 in 10.0 mi NE 4.6 mph - N/A   Clear
8:35 PM 30.2 °F 26.7 °F 28.4 °F 93% 30.36 in 10.0 mi East 3.5 mph - N/A   Clear
8:55 PM 30.2 °F 25.4 °F 28.4 °F 93% 30.36 in 10.0 mi East 4.6 mph - N/A   Clear
9:15 PM 30.2 °F 25.4 °F 28.4 °F 93% 30.36 in 10.0 mi East 4.6 mph - N/A   Clear
9:55 PM 30.2 °F 26.7 °F 28.4 °F 93% 30.36 in 10.0 mi East 3.5 mph - N/A   Clear
10:15 PM 30.2 °F 26.7 °F 28.4 °F 93% 30.36 in 10.0 mi ENE 3.5 mph - N/A   Clear
10:35 PM 30.2 °F 26.7 °F 28.4 °F 93% 30.36 in 10.0 mi East 3.5 mph - N/A   Clear
10:55 PM 30.2 °F 26.7 °F 28.4 °F 93% 30.36 in 10.0 mi ENE 3.5 mph - N/A   Clear
11:15 PM 30.2 °F 25.4 °F 26.6 °F 86% 30.36 in 10.0 mi ENE 4.6 mph - N/A   Clear
11:35 PM 30.2 °F 25.4 °F 26.6 °F 86% 30.35 in 10.0 mi ENE 4.6 mph - N/A   Clear
11:55 PM 30.2 °F 25.4 °F 26.6 °F 86% 30.35 in 10.0 mi ENE 4.6 mph - N/A   Clear